Probability
0 0 0 0 0 0 0 0 0 0 0 0 0 0 0 0 0 0 0 0 0 0 0 0 0 0 0 0 0 0 0 0 0 0 0 0 0 0
0 0 0 0 0 0 0 0 0 0 0 0 0 0 0 0 0 0 0 0 0 0 0 0 0 0 0 0 0 0 0 0 0 0 0 0 0 0
0 0 0 0 0 0 0 0 0 0 0 0 0 0 0 0 0 0 0 0 0 0 0 0 0 0 0 0 0 0 0 0 0 0 0 0 0 0
0 0 0 0 0 0 0 0 0 0 0 0 0 0 0 0 0 0 0 0 0 0 0 0 0 0 0 0 0 0 0 0 0 0 0 0 0 0
0 0 0 0 0 0 0 0 0 0 0 0 0 0 0 0 0 0 0 0 0 0 0 0 0 0 0 0 0 0 0 0 0 0 0 0 0 0
0 0 0 0 0 0 0 0 0 0 0 0 0 0 0 0 0 0 0 0 0 0 0 0 0 0 0 0 0 0 0 0 0 0 0 0 0 0
0 0 0 0 0 0 0 0 0 0 0 0 0 0 0 0 0 0 0 0 0 0 0 0 0 0 0 0 0 0 0 0 0 0 0 0 0 0
0 0 0 0 0 0 0 0 0 0 0 0 0 0 0 0 0 0 0 0 0 0 0 0 0 0 0 0 0 0 0 0 0 0 0 0 0 0
0 0 0 0 0 0 0 0 0 0 0 0 0 0 0 0 0 0 0 0 0 0 0 0 0 0 0 0 0 0 0 0 0 0 0 0 0 0
0 0 0 0 0 0 0 0 0 0 0 0 0 0 0 0 0 0 0 0 0 0 0 0 0 0 0 0 0 0 0 0 0 0 0 0 0 0
0 0 0 0 0 0 0 0 0 0 0 0 0 0 0 0 0 0 0 0 0 0 0 0 0 0 0 0 0 0 0 0 0 0 0 0 0 0
0 0 0 0 0 0 0 0 0 0 0 0 0 0 0 0 0 0 0 0 0 0 0 0 0 0 0 0 0 0 0 0 0 0 0 0 0 0
0 0 0 0 0 0 0 0 0 0 0 0 0 0 0 0 0 0 0 0 0 0 0 0 0 0 0 0 0 0 0 0 0 0 0 0 0 0
0 0 0 0 0 0 0 0 0 0 0 0 0 0 0 0 0 0 0 0 0 0 0 0 0 0 0 0 0 0 0 0 0 0 0 0 0 0
0 0 0 0 0 0 0 0 0 0 0 0 0 0 0 0 0 0 0 0 0 0 0 0 0 0 0 0 0 0 0 0 0 0 0 0 0 0
0 0 0 0 0 0 0 0 0 0 0 0 0 0 0 0 0 0 0 0 0 0 0 0 0 0 0 0 0 0 0 0 0 0 0 0 0 0
0 0 0 0 0 0 0 0 0 0 0 0 0 0 0 0 0 0 0 0 0 0 0 0 0 0 0 0 0 0 0 0 0 0 0 0 0 0
0 0 0 0 0 0 0 0 0 0 0 0 0 0 0 0 0 0 0 0 0 0 0 0 0 0 0 0 0 0 0 0 0 0 0 0 0 0
0 0 0 0 0 0 0 0 0 0 0 0 0 0 0 0 0 0 0 0 0 0 0 0 0 0 0 0 0 0 0 0 0 0 0 0 0 0
0 0 0 0 0 0 0 0 0 0 0 0 0 0 0 0 0 0 0 0 0 0 0 0 0 0 0 0 0 0 0 0 0 0 0 0 0 0
0 0 0 0 0 0 0 0 0 0 0 0 0 0 0 0 0 0 0 0 0 0 0 0 0 0 0 0 0 0 0 0 0 0 0 0 0 0
0 0 0 0 0 0 0 0 0 0 0 0 0 0 0 0 0 0 0 0 0 0 0 0 0 0 0 0 0 0 0 0 0 0 0 0 0 0
0 0 0 0 0 0 0 0 0 0 0 0 0 0 0 0 0 0 0 0 0 0 0 0 0 0 0 0 0 0 0 0 0 0 0 0 0 0
Wind_Speed
7 8 7 7 6 7 7 7 9 15 12 5 4 5 7 6 12 10 8 18 24 25 25 25 26 26 26 25 26 25 25 24 24 25 27 28 30 30
7 8 8 7 6 6 6 7 7 11 15 6 5 6 8 9 15 12 9 22 25 26 26 26 26 26 26 25 25 25 25 25 25 25 26 27 28 29
8 9 10 9 7 6 6 7 7 8 15 11 5 6 8 10 11 9 9 10 11 24 26 26 26 26 26 25 25 26 25 25 25 25 26 27 27 28
10 9 10 9 9 7 7 8 8 8 12 16 9 7 9 9 9 11 11 10 9 19 25 26 26 25 25 25 25 25 24 24 25 25 26 26 27 27
10 10 10 10 10 8 9 9 8 10 9 13 12 8 7 7 9 9 11 9 10 15 21 23 24 24 25 25 24 24 23 23 23 24 25 25 26 26
10 10 10 10 11 10 10 10 10 10 10 11 12 9 7 7 7 8 9 7 9 9 14 16 20 23 24 24 23 22 21 21 22 23 23 23 24 25
10 10 10 14 18 16 13 10 9 9 9 10 11 10 8 6 6 6 9 8 8 7 8 9 8 8 10 17 20 21 21 22 22 23 23 23 23 23
10 9 10 13 17 23 25 24 20 14 11 10 10 11 10 8 7 7 9 9 9 4 6 8 5 7 7 6 16 22 22 22 22 22 22 22 22 23
9 9 10 11 17 10 17 22 21 24 23 15 13 12 11 9 9 11 10 11 11 5 5 8 6 8 7 10 20 21 21 22 21 21 21 21 21 21
9 10 11 11 11 14 12 12 12 13 15 12 11 12 12 11 11 12 13 13 11 8 8 9 7 7 8 7 17 21 21 21 21 20 20 20 19 19
10 10 11 11 18 24 16 12 12 11 16 22 23 21 23 23 18 9 8 9 10 7 6 6 5 6 6 6 11 19 20 20 20 19 18 18 17 16
9 9 17 18 22 24 14 11 14 12 10 12 14 16 14 14 20 11 8 9 9 7 5 5 4 4 4 4 5 5 8 14 17 17 17 16 16 8
9 8 8 21 24 25 22 12 16 16 10 9 9 8 7 7 8 8 7 8 9 8 4 4 4 4 5 3 2 3 4 4 5 7 11 14 14 10
10 8 10 22 25 25 19 18 23 19 7 6 7 7 7 7 6 7 8 8 9 9 6 6 5 5 5 5 4 2 3 3 4 4 3 8 10 12
11 19 23 26 24 15 17 21 17 7 6 7 8 7 6 7 6 6 6 6 7 7 7 7 7 6 6 6 4 3 2 3 3 4 3 3 3 3
12 16 22 22 17 15 14 11 6 7 8 7 7 6 6 5 5 5 5 4 5 5 6 7 7 7 6 6 5 4 4 3 2 3 3 3 3 3
13 9 7 6 6 6 6 6 6 6 7 6 6 7 6 6 5 4 4 4 5 5 4 3 5 5 6 5 5 5 4 4 4 3 3 3 3 3
16 8 7 7 8 8 7 7 6 6 6 6 6 6 7 6 6 5 5 5 5 5 4 3 3 2 2 4 8 6 5 4 4 4 4 4 4 3
9 7 8 8 8 8 7 7 7 7 6 6 7 6 6 6 6 5 5 5 5 5 4 3 3 4 5 5 4 8 5 4 3 4 4 4 4 3
6 8 9 8 8 8 8 7 7 6 6 6 6 6 6 6 6 5 5 5 5 4 4 3 4 5 6 5 3 3 8 5 4 4 4 3 3 3
8 8 8 8 8 8 8 7 7 7 7 6 6 6 6 6 6 5 5 8 6 4 5 5 6 8 4 2 3 3 3 7 7 4 4 3 3 2
8 9 8 8 8 8 8 8 7 7 7 7 6 6 6 5 6 6 5 5 5 5 6 5 3 3 4 5 5 4 3 3 6 9 9 7 4 5
9 9 9 9 8 8 7 8 9 8 7 7 6 6 6 6 5 5 6 5 5 5 5 4 3 3 4 5 5 4 4 4 3 3 4 9 12 11
Wind_Direction
264 264 265 264 258 258 257 256 275 290 287 254 246 243 250 254 264 266 255 269 278 280 280 280 280 278 277 276 273 270 268 268 269 272 273 273 272 269
267 266 265 265 262 258 256 258 256 273 285 273 250 243 252 266 270 270 259 273 278 280 280 279 278 277 275 274 273 271 268 266 266 268 270 271 271 270
273 272 270 267 266 262 259 259 261 264 279 284 259 252 248 255 266 264 261 261 266 274 277 277 276 275 273 272 272 272 270 268 267 268 269 270 271 270
275 273 273 273 268 264 261 262 264 262 272 283 280 265 255 253 257 259 265 264 256 267 273 275 274 273 273 272 271 270 269 268 267 267 268 269 271 272
271 270 271 270 271 267 264 266 266 268 265 275 281 272 264 259 260 261 261 262 262 268 272 273 273 274 273 272 271 270 269 267 267 266 266 267 268 269
268 266 267 265 266 267 269 265 266 268 268 272 278 277 268 256 254 263 268 257 260 263 267 268 270 272 271 272 272 271 270 269 269 268 267 266 266 266
271 267 265 271 276 280 280 273 269 270 273 276 279 282 277 268 260 261 271 271 262 253 255 258 262 262 266 270 273 274 272 269 267 268 267 266 267 266
278 273 272 280 283 287 289 290 287 283 280 276 278 277 277 270 268 267 271 273 273 234 239 253 240 250 250 245 260 266 268 268 266 265 265 266 266 266
278 278 283 281 291 282 284 286 286 283 281 278 276 276 276 272 270 270 265 264 266 248 239 260 244 252 248 254 262 263 264 265 265 264 263 264 265 264
274 273 273 274 275 281 272 270 266 269 272 272 265 265 266 263 257 263 267 268 263 252 234 257 251 250 253 246 258 261 263 263 264 264 263 261 263 265
276 273 275 273 279 288 287 279 278 273 277 277 275 276 276 279 278 274 267 269 270 255 221 238 244 247 248 247 252 257 259 261 262 262 263 262 261 262
278 272 280 283 286 289 285 279 280 278 273 276 278 280 279 279 282 274 267 271 273 266 219 219 235 231 255 245 241 243 253 259 260 261 262 263 263 262
285 280 273 286 289 290 289 283 282 288 280 276 277 273 268 262 260 255 248 254 262 260 224 212 229 222 237 258 256 234 225 236 251 260 264 263 263 260
290 284 279 289 289 291 292 289 293 299 291 282 277 275 272 268 263 257 255 252 250 255 245 228 239 234 240 250 250 239 232 231 226 234 234 257 265 265
288 290 294 296 297 295 291 294 297 293 285 282 278 275 268 265 267 267 262 258 258 253 247 237 239 239 236 243 240 219 229 240 221 223 226 221 225 235
293 291 295 294 290 287 290 291 279 268 274 273 274 274 273 268 268 264 266 268 268 266 248 238 234 234 239 236 234 228 211 223 223 216 221 225 218 210
300 293 287 284 274 271 271 269 266 270 276 270 273 277 276 272 269 260 258 258 257 264 268 255 237 233 232 225 231 228 221 222 218 202 198 224 227 214
310 300 296 290 286 283 281 278 272 270 268 268 271 274 276 272 270 265 256 251 257 258 253 249 244 235 237 243 225 228 224 223 213 200 197 215 236 220
307 293 289 286 284 282 277 275 275 272 268 268 270 271 271 271 271 267 257 253 253 253 249 238 226 220 232 243 251 219 212 213 203 203 205 210 225 222
283 284 285 284 284 282 277 274 276 275 269 265 266 265 264 266 268 266 259 251 253 252 250 239 230 225 227 228 228 232 216 205 204 211 208 207 225 237
288 284 282 282 283 282 278 274 272 273 271 267 264 262 259 259 262 262 258 262 258 249 247 246 242 245 234 197 217 236 240 222 213 205 188 190 200 197
286 285 283 280 280 279 277 275 272 269 267 264 261 259 257 254 256 258 255 254 252 248 249 251 247 237 207 213 226 227 228 232 235 231 219 200 184 194
286 284 283 281 278 276 276 273 269 268 264 260 258 256 253 253 251 252 251 248 250 250 250 245 234 221 219 216 220 220 218 213 209 219 232 232 232 234